Weather History for Bryce Canyon, UT

Change the Weather History Date:

Tuesday, November 20, 2012

  Actual Average Record
Temperature  
Mean Temperature 34 °F -  
Max Temperature 50 °F 39 °F 55 °F (1959)
Min Temperature 19 °F 12 °F -7 °F (1985)
Degree Days  
Heating Degree Days 30    
Moisture  
Dew Point 23 °F    
Average Humidity 71    
Maximum Humidity 96    
Minimum Humidity 33    
Precipitation  
Precipitation 0.00 in - - ()
Sea Level Pressure  
Sea Level Pressure 30.23 in    
Wind  
Wind Speed 6 mph (SW)    
Max Wind Speed 18 mph    
Max Gust Speed 25 mph    
Visibility 10 miles    
Events      
Averages and records for this station are not official NWS values.
T = Trace of Precipitation, MM = Missing Value Source: NWS Daily Summary

Daily Weather History Graph

Daily Weather History Graph

Search for Another Location

Airport:

Trip Planner

Search our weather history database for the weather conditions in past years. The results will help you decide how hot, cold, wet, or windy it might be!

Date:

Astronomy

Nov. 20, 2012 Rise Set
Actual Time 7:14 AM MST 5:13 PM MST
Civil Twilight 6:46 AM MST 5:42 PM MST
Nautical Twilight 6:14 AM MST 6:14 PM MST
Astronomical Twilight 5:42 AM MST 6:45 PM MST
Moon 12:54 PM MST (11/20) No Moon Set
Length of Visible Light 10h 56m
Length of Day
9h 59m
First Quarter, 52% of the Moon is Illuminated
Nov 20
First Quarter
Nov 28
Full
Dec 6
Last Quarter
Dec 13
New
Dec 19
First Quarter

Hourly Weather History & Observations

Time (MST) Temp. Windchill Dew Point Humidity Pressure Visibility Wind Dir Wind Speed Gust Speed Precip Events Conditions
12:53 AM 23.0 °F 14.7 °F 21.0 °F 92% 30.27 in 10.0 mi West 6.9 mph - N/A   Clear
1:53 AM 24.1 °F 19.7 °F 21.0 °F 88% 30.26 in 10.0 mi West 3.5 mph - N/A   Clear
2:53 AM 21.9 °F 15.7 °F 19.9 °F 92% 30.26 in 10.0 mi WSW 4.6 mph - N/A   Clear
3:53 AM 23.0 °F 14.7 °F 21.9 °F 96% 30.25 in 10.0 mi West 6.9 mph - N/A   Clear
4:53 AM 23.0 °F 18.4 °F 19.9 °F 88% 30.27 in 10.0 mi West 3.5 mph - N/A   Clear
5:53 AM 21.0 °F - 19.0 °F 92% 30.30 in 10.0 mi Calm Calm - N/A   Clear
6:53 AM 19.9 °F - 18.0 °F 92% 30.35 in 10.0 mi Calm Calm - N/A   Clear
7:53 AM 24.1 °F 17.0 °F 21.9 °F 91% 30.35 in 10.0 mi West 5.8 mph - N/A   Clear
8:53 AM 32.0 °F 28.7 °F 27.0 °F 82% 30.32 in 10.0 mi WSW 3.5 mph - N/A   Clear
9:53 AM 43.0 °F 38.2 °F 28.9 °F 58% 30.26 in 10.0 mi SE 8.1 mph - N/A   Clear
10:53 AM 45.0 °F 39.7 °F 28.0 °F 52% 30.25 in 10.0 mi SSE 10.4 mph - N/A   Clear
11:53 AM 46.9 °F - 28.0 °F 48% 30.23 in 10.0 mi SE 13.8 mph - N/A   Clear
12:53 PM 48.9 °F - 26.1 °F 41% 30.18 in 10.0 mi SE 17.3 mph 25.3 mph N/A   Clear
1:53 PM 50.0 °F - 23.0 °F 35% 30.15 in 10.0 mi SE 18.4 mph - N/A   Clear
2:53 PM 50.0 °F - 23.0 °F 35% 30.14 in 10.0 mi SE 16.1 mph - N/A   Clear
3:53 PM 48.9 °F - 21.0 °F 33% 30.15 in 10.0 mi SSE 12.7 mph - N/A   Clear
4:53 PM 45.0 °F 41.8 °F 23.0 °F 42% 30.17 in 10.0 mi SSE 5.8 mph - N/A   Clear
5:53 PM 37.9 °F 35.5 °F 23.0 °F 55% 30.21 in 10.0 mi South 3.5 mph - N/A   Clear
6:53 PM 33.1 °F - 23.0 °F 66% 30.25 in 10.0 mi Calm Calm - N/A   Clear
7:53 PM 28.9 °F 22.8 °F 23.0 °F 78% 30.26 in 10.0 mi West 5.8 mph - N/A   Clear
8:53 PM 25.0 °F 19.3 °F 21.9 °F 88% 30.23 in 10.0 mi WSW 4.6 mph - N/A   Clear
9:53 PM 25.0 °F 19.3 °F 21.9 °F 88% 30.18 in 10.0 mi WSW 4.6 mph - N/A   Clear
10:53 PM 25.0 °F 18.1 °F 21.9 °F 88% 30.16 in 10.0 mi West 5.8 mph - N/A   Clear
11:53 PM 23.0 °F 17.0 °F 21.0 °F 92% 30.15 in 10.0 mi WSW 4.6 mph - N/A   Clear